This is the latest recevied weather packets stored in our database for station/object WX7FGZ-3. If no packets are shown the sender has not sent any weather packets the latest 10 day(s).
| Time | Temp. | Humidity | Pressure | Rain* | Wind** | Luminosity | Snow |
|---|---|---|---|---|---|---|---|
| 1777722982 | 0.56° C | 62% | 1018.5 hPa | 0 mm | - | - | - |
| 1777722681 | 0.56° C | 61% | 1018.5 hPa | 0 mm | - | - | - |
| 1777722381 | 1.11° C | 60% | 1018.6 hPa | 0 mm | - | - | - |
| 1777722081 | 1.11° C | 60% | 1018.7 hPa | 0 mm | - | - | - |
| 1777721781 | 1.11° C | 60% | 1018.6 hPa | 0 mm | - | - | - |
| 1777721480 | 1.11° C | 60% | 1018.6 hPa | 0 mm | - | - | - |
| 1777721180 | 1.11° C | 59% | 1018.6 hPa | 0 mm | - | - | - |
| 1777720879 | 1.11° C | 59% | 1018.6 hPa | 0 mm | - | - | - |
| 1777720279 | 1.11° C | 59% | 1018.5 hPa | 0 mm | - | - | - |
| 1777719979 | 1.11° C | 59% | 1018.6 hPa | 0 mm | - | - | - |
| 1777719678 | 1.11° C | 59% | 1018.5 hPa | 0 mm | - | - | - |
| 1777719378 | 1.11° C | 60% | 1018.6 hPa | 0 mm | - | - | - |
| 1777718777 | 1.67° C | 56% | 1018.6 hPa | 0 mm | - | - | - |
| 1777718477 | 1.67° C | 53% | 1018.5 hPa | 0 mm | - | - | - |
| 1777717877 | 2.22° C | 53% | 1018.6 hPa | 0 mm | - | - | - |
| 1777717276 | 2.22° C | 52% | 1018.6 hPa | 0 mm | - | - | - |
| 1777716676 | 1.67° C | 50% | 1018.5 hPa | 0 mm | - | - | - |
| 1777716375 | 1.67° C | 49% | 1018.5 hPa | 0 mm | - | - | - |
| 1777716075 | 1.11° C | 50% | 1018.6 hPa | 0 mm | - | - | - |
| 1777715775 | 1.11° C | 50% | 1018.6 hPa | 0 mm | - | - | - |
| 1777715474 | 0.56° C | 53% | 1018.7 hPa | 0 mm | - | - | - |
| 1777715174 | 1.11° C | 54% | 1018.6 hPa | 0 mm | - | - | - |
| 1777714874 | 1.11° C | 53% | 1018.7 hPa | 0 mm | - | - | - |
| 1777714574 | 1.11° C | 49% | 1018.6 hPa | 0 mm | - | - | - |
| 1777713973 | 1.67° C | 50% | 1018.5 hPa | 0 mm | - | - | - |
* Rain latest hour (hover to see other rain measurements)
** Current wind speed in m/s (hover to see current wind gust speed)